Location: Mountain Grove
(34.0887°N, 86.6172°W)
Time: 22:01:36
(UTC+00:00)

ATLAS 2A CENTAUR R/B - Pass Details

Date: 14 July 2020
Orbit: 276 x 15882 km, 26.8° (Epoch: 08 August)

Event Time Altitude Azimuth Distance (km) Brightness Sun altitude
Exits shadow 08:14:33 32° 157° (SSE) 1,646 3.9 -24.9°
Drops below altitude 10° 08:17:22 10° 114° (ESE) 2,046 4.8 -24.5°
Sets 08:18:54 0° 103° (ESE) 2,586 5.6 -24.3°
